Terminal Aerodrome Forecast
Issued by NWS Columbia, SC

Home | Current Version | Previous Version | Text Only | Print | Product List | Glossary On
Versions: 1 2 3 4 5 6 7 8 9 10 11 12 13 14 15 16 17 18 19 20 21 22 23 24 25 26 27 28 29 30 31 32 33 34 35 36 37 38 39 40 41 42 43 44 45 46 47
488
FTUS42 KCAE 300235 AAA
TAFAGS
TAF AMD
KAGS 300235Z 3003/3024 14008KT P6SM BKN250
     FM300600 15004KT P6SM OVC015
     FM300800 16004KT 5SM BR OVC008
     FM301400 17008KT P6SM OVC020
     FM301800 17010KT P6SM BKN040
     FM302000 17012G20KT P6SM BKN050=

USA.gov is the U.S. government's official web portal to all federal, state and local government web resources and services.